Date_and_time,latitude,longitude,wind_speed,RelWindDirFrom,WindDirFrom,air_pressure,air_temperature,relative_humidity,Temp,platform_speed_wrt_ground,air_pressure_at_mean_sea_level,platform_orientation
2019-02-23 00:00,50.6304416666667,-96.98077,9.2,11.5,186,996.21,-13.9,75,0.47,0.0,1025.67,360.0
2019-02-23 00:10,50.6304433333333,-96.9807683333333,10.1,12.9,181,996.16,-14.1,77,0.46,0.0,1025.64,360.0
2019-02-23 00:20,50.6304433333333,-96.98077,9.3,13.6,179,996.26,-14.3,77,0.46,0.0,1025.75,360.0
2019-02-23 00:30,50.630445,-96.9807683333333,9.5,12.2,183,996.30,-14.5,78,0.47,0.0,1025.83,360.0
2019-02-23 00:40,50.630445,-96.98077,9.7,12.2,184,996.34,-14.9,79,0.47,0.0,1025.90,360.0
2019-02-23 00:50,50.630445,-96.9807716666667,10.8,14.2,186,996.32,-15.2,80,0.47,0.0,1025.91,360.0
2019-02-23 01:00,50.630445,-96.9807716666667,9.9,12.5,186,996.34,-15.5,81,0.47,0.0,1025.97,270.0
2019-02-23 01:10,50.6304466666667,-96.9807716666667,7.7,10.2,182,996.39,-15.9,81,0.49,0.0,1026.06,270.0
2019-02-23 01:20,50.6304466666667,-96.9807716666667,7.0,8.2,183,996.36,-16.2,82,0.47,0.0,1026.06,270.0
2019-02-23 01:30,50.6304466666667,-96.9807716666667,7.4,9.7,181,996.48,-16.4,82,0.47,0.0,1026.22,270.0
2019-02-23 01:40,50.6304466666667,-96.9807716666667,6.6,8.1,181,996.60,-17.0,83,0.47,0.0,1026.39,270.0
2019-02-23 01:50,50.63046,-96.9807833333333,7.3,9.6,184,996.57,-17.2,84,0.47,0.0,1026.41,270.0
2019-02-23 02:00,50.6304566666667,-96.9807833333333,7.1,8.8,181,996.55,-17.8,84,0.48,0.0,1026.42,310.6
2019-02-23 02:10,50.6304716666667,-96.9808333333333,7.5,10.1,189,996.41,-18.1,85,0.48,0.0,1026.31,310.6
2019-02-23 02:20,50.63045,-96.9807733333333,8.7,10.9,188,996.30,-17.1,84,0.48,0.0,1026.16,310.6
2019-02-23 02:30,50.630435,-96.9807683333333,6.9,8.9,173,996.36,-17.7,84,0.48,0.0,1026.27,310.6
2019-02-23 02:40,50.63044,-96.9807616666667,5.7,6.5,182,996.38,-17.9,86,0.48,0.0,1026.32,310.6
2019-02-23 02:50,50.6304416666667,-96.9807633333333,5.8,6.6,189,996.35,-18.0,86,0.48,0.0,1026.31,310.6
2019-02-23 03:00,50.6304416666667,-96.9807666666667,5.5,6.9,186,996.31,-18.1,87,0.48,0.0,1026.30,0.0
2019-02-23 03:10,50.6304416666667,-96.9807683333333,4.8,5.7,191,996.28,-18.2,87,0.48,0.0,1026.29,0.0
2019-02-23 03:20,50.6304416666667,-96.9807666666667,4.4,5.5,187,996.28,-18.8,88,0.48,0.0,1026.34,0.0
2019-02-23 03:30,50.6304416666667,-96.9807666666667,5.0,5.7,194,996.18,-19.3,89,0.48,0.0,1026.30,0.0
2019-02-23 03:40,50.6304433333333,-96.9807683333333,5.4,6.3,192,996.16,-19.2,90,0.48,0.0,1026.29,0.0
2019-02-23 03:50,50.6304433333333,-96.98077,5.3,6.4,186,996.14,-19.2,90,0.47,0.0,1026.31,0.0
2019-02-23 04:00,50.6304283333333,-96.9807816666667,5.4,6.3,182,996.08,-19.6,89,0.47,0.0,1026.29,212.5
2019-02-23 04:10,50.6304316666667,-96.9807633333333,3.8,5.2,159,995.96,-20.8,88,0.48,0.0,1026.18,212.5
2019-02-23 04:20,50.630435,-96.980765,2.0,2.8,183,995.74,-21.5,87,0.47,0.0,1026.02,212.5
2019-02-23 04:30,50.6304383333333,-96.9807666666667,2.2,2.9,175,995.64,-21.0,89,0.47,0.0,1025.90,212.5
2019-02-23 04:40,50.6304383333333,-96.980765,3.1,3.5,149,995.61,-21.5,88,0.47,0.0,1025.91,212.5
2019-02-23 04:50,50.6304483333333,-96.9807866666667,3.3,4.5,151,995.59,-22.9,85,0.46,0.0,1025.98,212.5
2019-02-23 05:00,50.6304466666667,-96.980775,3.6,4.7,160,995.52,-23.4,85,0.47,0.0,1025.95,119.2
2019-02-23 05:10,50.6304483333333,-96.9807766666667,4.2,5.1,162,995.33,-23.3,85,0.47,0.0,1025.79,119.2
2019-02-23 05:20,50.63045,-96.9807783333333,4.6,5.3,159,995.28,-23.6,84,0.47,0.0,1025.78,119.2
2019-02-23 05:30,50.6304516666667,-96.9807783333333,4.4,5.0,166,995.13,-23.9,83,0.47,0.0,1025.64,119.2
2019-02-23 05:40,50.630425,-96.9807683333333,4.7,5.4,167,995.11,-23.7,84,0.47,0.0,1025.60,119.2
2019-02-23 05:50,50.63046,-96.98079,4.1,5.0,167,995.06,-23.9,83,0.47,0.0,1025.58,119.2
2019-02-23 06:00,50.6304416666667,-96.98077,4.3,5.3,159,994.95,-24.0,83,0.46,0.0,1025.55,0.0
2019-02-23 06:10,50.6304433333333,-96.9807716666667,4.7,5.9,158,994.88,-24.1,82,0.46,0.0,1025.53,0.0
2019-02-23 06:20,50.63043,-96.9807583333333,4.0,5.2,164,994.69,-24.3,82,0.46,0.0,1025.31,0.0
2019-02-23 06:30,50.6304533333333,-96.980785,4.5,5.8,166,994.68,-24.3,82,0.46,0.0,1025.34,0.0
2019-02-23 06:40,50.6304416666667,-96.9807666666667,5.5,6.6,162,994.72,-24.4,82,0.46,0.0,1025.47,0.0
2019-02-23 06:50,50.6304416666667,-96.980765,6.8,7.6,166,994.72,-24.5,82,0.46,0.0,1025.51,0.0
2019-02-23 07:00,50.6304433333333,-96.9807616666667,6.5,8.1,169,994.76,-23.5,83,0.46,0.0,1025.49,48.4
2019-02-23 07:10,50.6304433333333,-96.980765,3.2,4.6,158,994.16,-22.9,84,0.45,0.0,1024.84,48.4
2019-02-23 07:20,50.630445,-96.9807666666667,2.8,3.7,151,993.70,-22.7,84,0.45,0.0,1024.38,48.4
2019-02-23 07:30,50.630445,-96.9807683333333,3.2,5.5,144,993.70,-22.8,83,0.45,0.0,1024.37,48.4
2019-02-23 07:40,50.6304433333333,-96.980775,5.1,6.2,160,993.90,-23.5,82,0.45,0.0,1024.64,48.4
2019-02-23 07:50,50.6304516666667,-96.9807533333333,5.9,7.0,156,994.11,-23.6,82,0.45,0.0,1024.86,48.4
2019-02-23 08:00,50.6304466666667,-96.98076,5.2,5.9,157,994.11,-23.7,82,0.45,0.0,1024.88,90.0
2019-02-23 08:10,50.63045,-96.980765,4.9,5.6,159,994.05,-23.8,82,0.45,0.0,1024.83,90.0
2019-02-23 08:20,50.6304516666667,-96.98077,3.2,4.9,172,994.00,-23.7,81,0.45,0.0,1024.78,90.0
2019-02-23 08:30,50.63045,-96.9807666666667,2.0,3.2,169,993.68,-23.3,82,0.45,0.0,1024.43,90.0
2019-02-23 08:40,50.6304516666667,-96.98077,2.7,4.4,146,993.59,-23.1,82,0.45,0.0,1024.32,90.0
2019-02-23 08:50,50.6304533333333,-96.98077,3.8,4.2,154,993.52,-23.3,82,0.44,0.0,1024.20,90.0
2019-02-23 09:00,50.6304516666667,-96.9807716666667,3.1,3.9,155,993.28,-23.7,81,0.44,0.0,1023.95,360.0
2019-02-23 09:10,50.6304566666667,-96.98074,2.4,3.6,152,993.05,-23.6,82,0.44,0.0,1023.69,360.0
2019-02-23 09:20,50.6304566666667,-96.98076,3.7,4.4,158,993.04,-23.5,82,0.44,0.0,1023.69,360.0
2019-02-23 09:30,50.6304566666667,-96.9807666666667,4.1,4.6,166,992.92,-23.5,82,0.44,0.0,1023.60,360.0
2019-02-23 09:40,50.630455,-96.9807633333333,3.9,4.4,166,992.63,-23.0,82,0.44,0.0,1023.28,360.0
2019-02-23 09:50,50.6304566666667,-96.9807633333333,3.4,3.9,159,992.32,-22.5,83,0.44,0.0,1022.93,360.0
2019-02-23 10:00,50.6304566666667,-96.9807666666667,3.8,4.2,163,992.18,-22.3,83,0.44,0.0,1022.78,345.5
2019-02-23 10:10,50.630455,-96.980765,3.2,4.1,160,991.95,-22.0,84,0.43,0.0,1022.51,345.5
2019-02-23 10:20,50.6304533333333,-96.9807666666667,2.5,3.3,159,991.79,-21.7,84,0.43,0.0,1022.31,345.5
2019-02-23 10:30,50.6304516666667,-96.9807583333333,1.9,3.0,165,991.69,-21.5,84,0.43,0.0,1022.19,345.5
2019-02-23 10:40,50.6304683333333,-96.9807466666667,1.9,3.0,167,991.64,-21.3,85,0.43,0.0,1022.13,345.5
2019-02-23 10:50,50.6304483333333,-96.9807583333333,2.3,3.2,171,991.58,-20.9,85,0.43,0.0,1022.07,345.5
2019-02-23 11:00,50.6304516666667,-96.98077,1.8,2.2,172,991.49,-20.6,86,0.43,0.0,1021.95,347.4
2019-02-23 11:10,50.63045,-96.9807716666667,1.3,1.8,172,991.39,-20.2,86,0.43,0.0,1021.82,347.4
2019-02-23 11:20,50.6304483333333,-96.98077,1.1,1.6,163,991.29,-19.8,87,0.43,0.0,1021.70,347.4
2019-02-23 11:30,50.6304466666667,-96.9807683333333,1.6,2.5,163,991.29,-19.5,87,0.42,0.0,1021.65,347.4
2019-02-23 11:40,50.6304483333333,-96.9807683333333,2.1,2.9,157,991.27,-19.4,87,0.42,0.0,1021.58,347.4
2019-02-23 11:50,50.6304466666667,-96.9807683333333,1.6,2.5,153,991.19,-19.3,88,0.42,0.0,1021.48,347.4
2019-02-23 12:00,50.6304716666667,-96.9807816666667,2.2,2.8,139,991.06,-19.1,88,0.42,0.0,1021.32,345.5
2019-02-23 12:10,50.6304533333333,-96.9807733333333,1.6,2.7,118,990.83,-18.3,88,0.42,0.0,1021.01,345.5
2019-02-23 12:20,50.6304466666667,-96.980765,1.2,2.1,106,990.57,-18.0,89,0.42,0.0,1020.71,345.5
2019-02-23 12:30,50.630445,-96.9807666666667,1.1,1.7,62,990.47,-17.8,89,0.42,0.0,1020.59,345.5
2019-02-23 12:40,50.63045,-96.9807733333333,1.7,2.5,43,990.41,-17.7,89,0.42,0.0,1020.50,345.5
2019-02-23 12:50,50.6304566666667,-96.9807683333333,2.2,2.7,35,990.36,-17.6,89,0.42,0.0,1020.42,345.5
2019-02-23 13:00,50.630455,-96.9807733333333,2.5,3.2,25,990.26,-17.5,90,0.42,0.0,1020.29,270.0
2019-02-23 13:10,50.6304533333333,-96.9807716666667,3.0,3.8,2,990.20,-17.4,90,0.42,0.0,1020.20,270.0
2019-02-23 13:20,50.6304566666667,-96.9807766666667,4.0,4.8,5,990.15,-17.1,90,0.42,0.0,1020.12,270.0
2019-02-23 13:30,50.6304566666667,-96.980775,3.9,4.8,345,990.15,-16.9,91,0.42,0.0,1020.09,270.0
2019-02-23 13:40,50.6304566666667,-96.980775,3.6,5.0,356,990.06,-16.6,91,0.42,0.0,1019.98,270.0
2019-02-23 13:50,50.63046,-96.98077,4.4,5.4,357,990.03,-16.6,91,0.42,0.0,1019.93,270.0
2019-02-23 14:00,50.63045,-96.9807633333333,5.6,6.7,351,989.84,-16.7,91,0.42,0.0,1019.69,0.0
2019-02-23 14:10,50.6304516666667,-96.980765,5.7,6.9,353,989.71,-16.6,91,0.42,0.0,1019.54,0.0
2019-02-23 14:20,50.63045,-96.9807683333333,6.2,7.2,357,989.52,-16.2,92,0.42,0.0,1019.31,0.0
2019-02-23 14:30,50.63045,-96.9807683333333,5.8,7.1,358,989.38,-15.8,93,0.42,0.0,1019.13,0.0
2019-02-23 14:40,50.6304533333333,-96.9807733333333,5.1,6.4,2,989.34,-15.5,93,0.42,0.0,1019.07,0.0
2019-02-23 14:50,50.6304583333333,-96.98077,6.5,7.7,7,989.09,-15.5,93,0.42,0.0,1018.80,0.0
2019-02-23 15:00,50.6304466666667,-96.9807666666667,6.0,7.3,3,988.98,-15.3,93,0.42,0.0,1018.68,171.6
2019-02-23 15:10,50.6304433333333,-96.98077,7.1,8.8,9,988.87,-14.8,95,0.42,0.0,1018.52,171.6
2019-02-23 15:20,50.630445,-96.98077,7.7,8.6,23,988.80,-14.2,96,0.41,0.0,1018.39,171.6
2019-02-23 15:30,50.6304466666667,-96.98077,7.3,8.7,39,988.62,-13.9,96,0.41,0.0,1018.18,171.6
2019-02-23 15:40,50.6304466666667,-96.98077,6.3,7.9,29,988.58,-13.6,96,0.41,0.0,1018.12,171.6
2019-02-23 15:50,50.63047,-96.9807733333333,5.0,6.2,3,988.67,-13.2,96,0.41,0.0,1018.20,171.6
2019-02-23 16:00,50.6304483333333,-96.9807716666667,6.4,7.7,3,988.68,-13.0,96,0.42,0.0,1018.18,142.0
2019-02-23 16:10,50.630445,-96.9807716666667,7.2,9.0,11,988.50,-12.8,96,0.42,0.0,1017.96,142.0
2019-02-23 16:20,50.6304466666667,-96.9807716666667,7.5,8.9,5,988.31,-12.7,95,0.42,0.0,1017.74,142.0
2019-02-23 16:30,50.6304466666667,-96.9807716666667,6.7,8.2,352,988.36,-12.5,94,0.42,0.0,1017.77,142.0
2019-02-23 16:40,50.6304466666667,-96.9807716666667,6.3,7.5,355,988.38,-12.1,94,0.42,0.0,1017.76,142.0
2019-02-23 16:50,50.6304466666667,-96.9807716666667,6.8,8.5,5,988.11,-12.0,93,0.42,0.0,1017.47,142.0
2019-02-23 17:00,50.6304466666667,-96.9807733333333,8.3,9.4,8,987.90,-12.2,92,0.42,0.0,1017.23,192.6
2019-02-23 17:10,50.6304483333333,-96.980775,8.7,10.4,7,987.72,-12.5,92,0.42,0.0,1017.03,192.6
2019-02-23 17:20,50.6304483333333,-96.9807733333333,8.7,10.1,1,987.47,-12.5,92,0.42,0.0,1016.75,192.6
2019-02-23 17:30,50.6304483333333,-96.9807733333333,7.8,9.3,359,987.44,-12.3,92,0.41,0.0,1016.70,192.6
2019-02-23 17:40,50.6304483333333,-96.980775,7.2,8.9,352,987.51,-12.0,90,0.42,0.0,1016.73,192.6
2019-02-23 17:50,50.6304483333333,-96.980775,7.6,9.4,1,987.31,-11.6,89,0.42,0.0,1016.50,192.6
2019-02-23 18:00,50.6304483333333,-96.980775,7.4,8.6,5,987.17,-11.7,89,0.42,0.0,1016.34,270.0
2019-02-23 18:10,50.6304483333333,-96.980775,7.3,8.8,10,987.03,-11.8,89,0.42,0.0,1016.19,270.0
2019-02-23 18:20,50.6304483333333,-96.980775,7.4,8.5,5,986.92,-11.8,89,0.42,0.0,1016.06,270.0
2019-02-23 18:30,50.6304483333333,-96.9807766666667,6.9,8.2,1,986.82,-11.7,88,0.42,0.0,1015.94,270.0
2019-02-23 18:40,50.6304516666667,-96.9807666666667,4.9,5.9,10,986.96,-11.0,86,0.42,0.0,1016.04,270.0
2019-02-23 18:50,50.6304466666667,-96.9807633333333,5.7,6.8,16,986.85,-11.0,86,0.42,0.0,1015.94,270.0
2019-02-23 19:00,50.6304466666667,-96.980765,5.6,6.8,11,986.75,-11.1,86,0.42,0.0,1015.86,90.0
2019-02-23 19:10,50.6304483333333,-96.9807666666667,4.4,5.8,5,986.82,-10.9,85,0.42,0.0,1015.91,90.0
2019-02-23 19:20,50.63043,-96.9807433333333,3.3,3.9,23,986.82,-10.6,85,0.43,0.0,1015.89,90.0
2019-02-23 19:30,50.6304383333333,-96.9807583333333,3.1,3.8,35,986.73,-10.4,85,0.43,0.0,1015.77,90.0
2019-02-23 19:40,50.6304316666667,-96.9807666666667,3.3,3.7,29,986.67,-10.6,87,0.43,0.0,1015.69,90.0
2019-02-23 19:50,50.630445,-96.9807633333333,3.2,4.0,29,986.58,-10.5,88,0.43,0.0,1015.61,90.0
2019-02-23 20:00,50.630445,-96.9807616666667,3.2,3.8,19,986.38,-10.5,88,0.43,0.0,1015.40,125.3
2019-02-23 20:10,50.6304616666667,-96.9807766666667,2.4,3.2,47,986.25,-10.1,88,0.43,0.0,1015.24,125.3
2019-02-23 20:20,50.6304516666667,-96.98077,2.1,3.1,43,986.06,-9.7,87,0.43,0.0,1015.02,125.3
2019-02-23 20:30,50.6304466666667,-96.9807666666667,2.2,3.0,47,985.91,-9.4,86,0.44,0.0,1014.81,125.3
2019-02-23 20:40,50.6304516666667,-96.9807666666667,2.4,3.3,33,985.74,-9.5,87,0.45,0.0,1014.64,125.3
2019-02-23 20:50,50.6304516666667,-96.9807666666667,3.3,4.3,12,985.47,-9.7,88,0.45,0.0,1014.38,125.3
2019-02-23 21:00,50.6304533333333,-96.980765,3.2,4.5,0,985.16,-9.3,88,0.45,0.0,1014.03,48.3
2019-02-23 21:10,50.6304233333333,-96.9807666666667,4.3,7.2,6,985.11,-8.6,85,0.45,0.0,1013.92,48.3
2019-02-23 21:20,50.63045,-96.980775,6.0,6.9,9,984.90,-9.4,90,0.44,0.0,1013.74,48.3
2019-02-23 21:30,50.63045,-96.9807733333333,6.2,7.5,11,984.94,-9.5,91,0.45,0.0,1013.79,48.3
2019-02-23 21:40,50.63045,-96.980775,6.6,7.5,13,984.92,-9.3,91,0.45,0.0,1013.77,48.3
2019-02-23 21:50,50.6304483333333,-96.980775,6.2,7.8,8,984.84,-9.4,92,0.45,0.0,1013.68,48.3
2019-02-23 22:00,50.6304483333333,-96.9807733333333,4.2,5.5,18,984.91,-9.2,93,0.45,0.0,1013.72,270.0
2019-02-23 22:10,50.6304483333333,-96.9807733333333,4.2,4.7,33,985.13,-9.1,93,0.45,0.0,1013.92,270.0
2019-02-23 22:20,50.6304483333333,-96.9807716666667,3.4,4.5,26,985.12,-9.1,94,0.45,0.0,1013.89,270.0
2019-02-23 22:30,50.63044,-96.98075,1.5,3.3,4,985.11,-8.8,94,0.45,0.0,1013.87,270.0
2019-02-23 22:40,50.63044,-96.980765,4.3,7.7,327,985.06,-8.0,91,0.45,0.0,1013.78,270.0
2019-02-23 22:50,50.6304416666667,-96.98077,5.1,6.4,320,984.90,-7.4,88,0.45,0.0,1013.57,270.0
2019-02-23 23:00,50.6304433333333,-96.9807716666667,4.2,5.8,318,984.91,-7.4,88,0.45,0.0,1013.54,270.0
2019-02-23 23:10,50.630445,-96.98081,4.2,6.1,319,984.98,-7.3,89,0.45,0.0,1013.65,270.0
2019-02-23 23:20,50.6304466666667,-96.98078,3.4,5.1,324,985.02,-7.3,89,0.45,0.0,1013.70,270.0
2019-02-23 23:30,50.6304433333333,-96.9807683333333,3.1,4.9,328,985.08,-7.3,91,0.46,0.0,1013.75,270.0
